TimeMDT,TemperatureF,Dew PointF,Humidity,Sea Level PressureIn,VisibilityMPH,Wind Direction,Wind SpeedMPH,Gust SpeedMPH,PrecipitationIn,Events,Conditions,WindDirDegrees,DateUTC
12:53 AM,28.9,27.0,92,30.20,10.0,West,3.5,-,N/A,,Overcast,260,2013-10-18 06:53:00
1:53 AM,30.0,27.0,88,30.19,10.0,South,3.5,-,N/A,,Scattered Clouds,190,2013-10-18 07:53:00
2:53 AM,27.0,25.0,92,30.20,10.0,SSE,3.5,-,N/A,,Clear,150,2013-10-18 08:53:00
3:53 AM,28.9,26.1,89,30.19,10.0,Calm,Calm,-,N/A,,Clear,0,2013-10-18 09:53:00
4:53 AM,28.0,25.0,88,30.19,10.0,WSW,5.8,-,N/A,,Clear,240,2013-10-18 10:53:00
5:53 AM,30.0,26.1,85,30.19,10.0,WSW,8.1,-,N/A,,Scattered Clouds,240,2013-10-18 11:53:00
6:53 AM,32.0,28.9,88,30.21,10.0,West,3.5,-,N/A,,Overcast,260,2013-10-18 12:53:00
7:53 AM,34.0,30.9,89,30.23,10.0,West,6.9,-,N/A,,Overcast,270,2013-10-18 13:53:00
8:53 AM,36.0,30.9,82,30.24,10.0,WNW,13.8,25.3,N/A,,Overcast,300,2013-10-18 14:53:00
9:53 AM,41.0,30.9,67,30.24,10.0,NW,19.6,26.5,N/A,,Overcast,310,2013-10-18 15:53:00
10:53 AM,43.0,30.9,62,30.23,10.0,NW,20.7,29.9,N/A,,Overcast,310,2013-10-18 16:53:00
11:53 AM,42.1,27.0,55,30.23,10.0,NW,17.3,26.5,N/A,,Scattered Clouds,320,2013-10-18 17:53:00
12:53 PM,45.0,28.9,53,30.20,10.0,NW,23.0,32.2,N/A,,Mostly Cloudy,310,2013-10-18 18:53:00
1:45 PM,41.0,30.2,65,30.11,10.0,NNE,13.8,23.0,N/A,,Scattered Clouds,20,2013-10-18 19:45:00
1:53 PM,43.0,32.0,65,30.19,10.0,NNE,9.2,23.0,N/A,,Mostly Cloudy,20,2013-10-18 19:53:00
2:53 PM,46.0,27.0,47,30.18,10.0,WNW,19.6,29.9,N/A,,Partly Cloudy,300,2013-10-18 20:53:00
3:53 PM,43.0,28.0,56,30.17,10.0,NW,13.8,20.7,N/A,,Overcast,310,2013-10-18 21:53:00
4:53 PM,44.1,27.0,51,30.16,10.0,NW,18.4,26.5,N/A,,Overcast,310,2013-10-18 22:53:00
5:53 PM,43.0,28.0,56,30.15,10.0,NNW,6.9,-,N/A,,Overcast,330,2013-10-18 23:53:00
6:53 PM,39.0,28.0,65,30.15,10.0,NW,3.5,-,N/A,,Clear,320,2013-10-19 00:53:00
7:53 PM,37.9,28.0,68,30.15,10.0,NW,4.6,-,N/A,,Mostly Cloudy,310,2013-10-19 01:53:00
8:53 PM,36.0,28.9,76,30.14,10.0,SW,5.8,-,N/A,,Overcast,220,2013-10-19 02:53:00
9:53 PM,34.0,28.9,82,30.12,10.0,SW,6.9,-,N/A,,Overcast,230,2013-10-19 03:53:00
10:53 PM,36.0,30.0,79,30.10,10.0,WSW,9.2,-,N/A,,Overcast,240,2013-10-19 04:53:00
11:53 PM,37.9,28.9,70,30.06,10.0,WSW,8.1,-,N/A,,Overcast,250,2013-10-19 05:53:00